Regional Weather Roundup
Issued by NWS Upton, NY

Current Version | Previous Version | Graphics & Text | Print | Product List | Glossary Off
Versions: 1 2 3 4 5 6 7 8 9 10 11 12 13 14 15 16 17 18 19 20 21 22 23 24 25 26 27 28 29 30 31 32 33 34 35 36 37 38 39 40 41 42 43 44 45 46 47 48 49 50

281
ASUS41 KOKX 160008
RWROKX

REGIONAL WEATHER ROUNDUP
NATIONAL WEATHER SERVICE NEW YORK NY
800 PM EDT SUN OCT 15 2017

NOTE: "FAIR" INDICATES FEW OR NO CLOUDS BELOW 12,000 FEET WITH NO
SIGNIFICANT WEATHER AND/OR OBSTRUCTIONS TO VISIBILITY.

NYZ071-072-176-178-NJZ106-104-160100-
NEW YORK CITY METRO AREA

CITY           SKY/WX    TMP DP  RH WIND       PRES   REMARKS
Central Park   CLOUDY    69  62  78 VRB3      29.86F
Bronx Bot Gard   N/A     68  59  73 W5        29.85F
LaGuardia APRT MOCLDY    70  62  76 SW12G26   29.83F
Kennedy INTL   CLOUDY    70  65  84 SW15      29.86F
Breezy Point     N/A     68 N/A N/A SW10G17     N/A
Newark/Liberty MOCLDY    69  62  78 SW16      29.84F
Teterboro      CLOUDY    70  62  76 SW12G24   29.83F
$$

NYZ177-179-078>081-160100-
LONG ISLAND NEW YORK

CITY           SKY/WX    TMP DP  RH WIND       PRES   REMARKS
Jones Beach      N/A     66 N/A N/A SW7G14      N/A
Matinecock PT    N/A     70 N/A N/A SW16        N/A
Farmingdale    CLOUDY    68  65  90 SW12      29.85F
MacArthur/ISP  CLOUDY    68  66  93 SW16      29.85F
Shirley        CLOUDY    70  67  90 S15G22    29.86F
Mt Sinai Harb    N/A    N/A N/A N/A SW10G16     N/A
Westhampton    CLOUDY    66  64  94 SW14G24   29.87F
East Hampton   CLOUDY    65  64  94 SW14G21   29.85F
Montauk          N/A     67  65  93 SW10G20   29.87S
$$

NYZ052-065-067-160100-
HUDSON VALLEY

CITY           SKY/WX    TMP DP  RH WIND       PRES   REMARKS
White Plains   MOCLDY    68  61  78 SW8       29.83F
Larchmont Harb   N/A     70 N/A N/A S25         N/A
Croton On Huds   N/A     68 N/A N/A S9          N/A
Newburgh       CLOUDY    68  63  83 W12       29.82S
Montgomery     CLOUDY    67  61  81 SW15      29.79F
Poughkeepsie   CLOUDY    69  60  73 S12G21    29.78F
Albany         PTCLDY    68  60  75 S20G31    29.67S
$$

NJZ001-105-106-008-010-013-015-019>022-104-160100-
NEW JERSEY

CITY           SKY/WX    TMP DP  RH WIND       PRES   REMARKS
Newark/Liberty MOCLDY    69  62  78 SW16      29.84F
Teterboro      CLOUDY    70  62  76 SW12G24   29.83F
Caldwell       CLOUDY    68  63  84 VRB5      29.84F
Somerville     CLOUDY    68  64  87 S3        29.84S
Linden         MOCLDY    69  61  76 SW3       29.85F
Perth Amboy      N/A     68 N/A N/A SW14        N/A
Sussex         CLOUDY    67  62  84 SW10G21   29.82S
Andover          N/A     66  62  87 S8        29.83F
Trenton        PTCLDY    68  63  84 S7        29.85F
Millville      CLEAR     70  68  93 VRB5      29.89F
Atlantic City  CLEAR     68  67  96 S7        29.89F
Wrightstown    CLEAR     66  63  88 S9        29.86F
Toms River       N/A     67  63  87 S9        29.88F
Belmar         PTCLDY    68  63  84 SW9       29.88F
$$

PAZ047>061-062-071-160100-
EASTERN PENNSYLVANIA

CITY           SKY/WX    TMP DP  RH WIND       PRES   REMARKS
Philadelphia   CLEAR     69  64  84 S10       29.86F
Allentown      CLOUDY    68  62  81 SW7       29.84F
Scranton       PTCLDY    67  62  84 VRB6      29.79S
$$

CTZ002-004>006-009-010-012-RIZ004-006-007-MAZ004-011-015-160100-
SOUTHERN NEW ENGLAND
 IN CT

CITY           SKY/WX    TMP DP  RH WIND       PRES   REMARKS
Bradley INTL   MOCLDY    70  62  76 SW16      29.76F
Hartford       MOCLDY    71  63  75 S16G25    29.77F
Danbury        MOCLDY    69  61  75 SW14G21   29.82F
Wtrbury/Oxford CLOUDY    67  62  84 S8        29.82F
Norwalk Harbor   N/A     68 N/A N/A SW23        N/A
Bridgeport     MOCLDY    70  63  78 SW17      29.82F
Meriden        CLOUDY    70  62  76 S12G17    29.80F
New Haven      CLOUDY    69  65  86 SW8       29.82F
Chester        CLOUDY    68  66  94 S9G18     29.83F
Groton         CLOUDY    68  65  90 SW15      29.83F
Wilimantic     CLOUDY    70  64  81 SW12G28   29.80F

 IN RI

CITY           SKY/WX    TMP DP  RH WIND       PRES   REMARKS
Providence     CLOUDY    69  64  84 SW16G23   29.81F
Block Island   MOCLDY    65  64  97 SW20      29.86S
Westerly       CLOUDY    68  65  90 SW15      29.85F
 IN MA

CITY           SKY/WX    TMP DP  RH WIND       PRES   REMARKS
Boston         CLOUDY    69  62  78 SW21G28   29.73F
Worcester      CLOUDY    66  59  78 SW22G32   29.76F
Westfield      PTCLDY    70  62  76 SW20      29.75R
Provincetown   CLOUDY    64  62  93 SW23G30   29.79F
Nantucket      CLOUDY    64  64 100 SW21      29.88F
$$

ANZ330-335-338-340-345-350-353-355-160100-
COASTAL MARINE OBSERVATIONS


STATION/POSITION TIME  SKY/WX   TEMP    WIND        PRES    VSBY  WAVE
                                AIR SEA DIR/SP/G                  HT/PER
                 (UTC)          (F)     (DEG/KT/KT) (MB)    (MI)  (FT/S)
NY HARB ENTRANCE 2250            68 67  210/ 16/ 19 1010.7          4/ 9
20 S FIRE ISLAND 2250            67 65  220/ 19/ 21 1012.0          5/ 9
GREAT SOUTH BAY  2330            67 66  210/ 17/ 23   N/A
15 E BARNEGAT LI 2330               68                N/A           5/ 5
HUDSON CANYON    2250            67 65  210/ 16/ 19 1013.3          5/ 9
KINGS POINT      2336            70 69  250/ 13/ 18 1011.3
EXECUTION ROCKS  2330            70     200/ 17/ 25   N/A
WESTERN LI SOUND 2245            71     230/ 16/ 21   N/A           2/ 3
CENTRAL LI SOUND NOT AVBL
EASTERN LI SOUND NOT AVBL
ROBBINS REEF     2342            69     200/ 13/ 17 1011.3
$$


>>>>>>>>>>>>>>>>>>>>>>>>>>>> KEY <<<<<<<<<<<<<<<<<<<<<<<<<<<
>                                                          <
>     SKY/WX - Sky Condition/Present Weather               <
>     TMP    - Temperature in Fahrenheit                   <
>     DP     - Dew Point in Fahrenheit                     <
>     RH     - Relative Humidity in Percent                <
>     WIND   - Direction (from) and Speed in MPH           <
>     PRES   - Mean Sea Level Pressure (inches of Hg)      <
>     WCI    - Wind Chill Index                            <
>     VSB    - VISIBILITY IN MILES                         <
>     HX     - HEAT INDEX                                  <
>     TC     - TEMPERATURE IN CELSIUS                      <
>     VRB    - VARIABLE WIND DIRECTION                     <
>                                                          <
>>>>>>>>>>>>>>>>>>>>>>>>>>>> KEY <<<<<<<<<<<<<<<<<<<<<<<<<<<




USA.gov is the U.S. government's official web portal to all federal, state and local government web resources and services.